DLH28M EDDH-ESGG

Flight info

Callsign DLH28M
Flight time 0h 51m
Altitude 35000
Route SOKWO1G/33 SOKWO T814 EXNEL M105 AMRAK DCT GOTEX N873 LOBBI
Aircraft A319/M-SDE3FGHIRWY/LB1

Departure

Time 2026-05-07 15:10
Airport Hamburg Helmut Schmidt Airport (EDDH)

Arrival

Time 2026-05-07 16:01
Airport Göteborg Landvetter Airport (ESGG)
Time Latitude Longitude Altitude Speed Heading
2026-05-07 14:49 53.63373 10.00345 49 ft 0 kts 86°
2026-05-07 15:01 53.63372 10.00322 47 ft 4 kts 86°
2026-05-07 15:01 53.63370 10.00277 43 ft 4 kts 88°
2026-05-07 15:01 53.63370 10.00231 43 ft 4 kts 92°
2026-05-07 15:02 53.63373 10.00187 44 ft 4 kts 111°
2026-05-07 15:02 53.63385 10.00159 47 ft 2 kts 174°
2026-05-07 15:02 53.63387 10.00159 45 ft 0 kts 176°
2026-05-07 15:05 53.63386 10.00159 45 ft 0 kts 176°
2026-05-07 15:05 53.63351 10.00163 45 ft 10 kts 176°
2026-05-07 15:05 53.63274 10.00172 48 ft 11 kts 176°
2026-05-07 15:05 53.63196 10.00182 48 ft 11 kts 175°
2026-05-07 15:06 53.63115 10.00192 48 ft 12 kts 176°
2026-05-07 15:06 53.63039 10.00152 48 ft 12 kts 212°
2026-05-07 15:06 53.62970 10.00078 48 ft 12 kts 213°
2026-05-07 15:06 53.62915 9.99977 48 ft 12 kts 244°
2026-05-07 15:07 53.62898 9.99919 48 ft 0 kts 243°
2026-05-07 15:07 53.62897 9.99916 48 ft 1 kts 243°
2026-05-07 15:07 53.62896 9.99913 48 ft 0 kts 243°
2026-05-07 15:08 53.62895 9.99909 48 ft 2 kts 243°
2026-05-07 15:08 53.62884 9.99872 47 ft 6 kts 243°
2026-05-07 15:08 53.62860 9.99787 43 ft 9 kts 260°
2026-05-07 15:09 53.62886 9.99729 45 ft 0 kts 330°
2026-05-07 15:09 53.62925 9.99693 45 ft 33 kts 332°
2026-05-07 15:09 53.63370 9.99314 47 ft 107 kts 333°
2026-05-07 15:09 53.64213 9.98588 57 ft 162 kts 334°
2026-05-07 15:10 53.65190 9.97672 697 ft 159 kts 336°
2026-05-07 15:10 53.66186 9.96809 1425 ft 164 kts 338°
2026-05-07 15:10 53.67273 9.95897 1885 ft 186 kts 338°
2026-05-07 15:10 53.68510 9.94912 2304 ft 207 kts 345°
2026-05-07 15:11 53.69934 9.94649 2908 ft 212 kts
2026-05-07 15:11 53.71417 9.94674 3804 ft 212 kts
2026-05-07 15:11 53.72901 9.94730 4652 ft 216 kts
2026-05-07 15:11 53.74329 9.95542 5080 ft 226 kts 33°
2026-05-07 15:12 53.75707 9.97067 5598 ft 247 kts 35°
2026-05-07 15:12 53.77180 9.98701 6417 ft 257 kts 34°
2026-05-07 15:12 53.78694 10.00371 7300 ft 262 kts 34°
2026-05-07 15:12 53.80244 10.02069 8209 ft 267 kts 33°
2026-05-07 15:13 53.81823 10.03796 9059 ft 274 kts 33°
2026-05-07 15:13 53.83450 10.05574 9880 ft 282 kts 33°
2026-05-07 15:13 53.85131 10.07413 10444 ft 298 kts 33°
2026-05-07 15:13 53.86949 10.09370 10744 ft 322 kts 29°
2026-05-07 15:14 53.89087 10.10742 11268 ft 334 kts 12°
2026-05-07 15:14 53.91419 10.11032 12009 ft 339 kts 355°
2026-05-07 15:14 53.93741 10.10280 12814 ft 343 kts 345°
2026-05-07 15:14 53.96071 10.09297 13622 ft 346 kts 345°
2026-05-07 15:15 53.98419 10.08298 14333 ft 350 kts 345°
2026-05-07 15:15 54.00793 10.07286 15032 ft 353 kts 345°
2026-05-07 15:15 54.03191 10.06269 15738 ft 356 kts 345°
2026-05-07 15:15 54.05605 10.05247 16427 ft 360 kts 345°
2026-05-07 15:16 54.08045 10.04198 17117 ft 363 kts 342°
2026-05-07 15:16 54.10393 10.02578 17787 ft 366 kts 330°
2026-05-07 15:16 54.12513 10.00187 18470 ft 367 kts 319°
2026-05-07 15:16 54.14340 9.97121 19057 ft 370 kts 310°
2026-05-07 15:17 54.16060 9.93837 19663 ft 373 kts 311°
2026-05-07 15:17 54.17803 9.90516 20206 ft 377 kts 311°
2026-05-07 15:17 54.19556 9.87177 20777 ft 381 kts 311°
2026-05-07 15:17 54.21330 9.83796 21379 ft 383 kts 311°
2026-05-07 15:18 54.23116 9.80392 21985 ft 386 kts 311°
2026-05-07 15:18 54.25049 9.77193 22557 ft 390 kts 320°
2026-05-07 15:18 54.27245 9.74413 23076 ft 394 kts 323°
2026-05-07 15:18 54.29475 9.71648 23606 ft 398 kts 323°
2026-05-07 15:19 54.31699 9.68885 24062 ft 401 kts 322°
2026-05-07 15:19 54.34069 9.66237 24516 ft 404 kts 331°
2026-05-07 15:19 54.36677 9.64372 24955 ft 408 kts 342°
2026-05-07 15:19 54.39440 9.63409 25429 ft 411 kts 355°
2026-05-07 15:20 54.42299 9.63390 25888 ft 412 kts
2026-05-07 15:20 54.45135 9.64202 26337 ft 413 kts 11°
2026-05-07 15:20 54.47966 9.65134 26799 ft 415 kts 11°
2026-05-07 15:20 54.50810 9.66072 27217 ft 417 kts 11°
2026-05-07 15:21 54.53663 9.67011 27723 ft 417 kts 12°
2026-05-07 15:21 54.56513 9.67931 28261 ft 417 kts 11°
2026-05-07 15:21 54.59369 9.68837 28816 ft 416 kts 11°
2026-05-07 15:21 54.62216 9.69732 29380 ft 415 kts 11°
2026-05-07 15:22 54.65057 9.70620 29946 ft 414 kts 11°
2026-05-07 15:22 54.67894 9.71442 30473 ft 413 kts 10°
2026-05-07 15:22 54.70738 9.72178 30880 ft 415 kts
2026-05-07 15:22 54.73608 9.72874 31218 ft 417 kts
2026-05-07 15:23 54.76485 9.73563 31604 ft 418 kts
2026-05-07 15:23 54.79370 9.74265 31994 ft 419 kts
2026-05-07 15:23 54.82255 9.75104 32397 ft 420 kts 14°
2026-05-07 15:23 54.85043 9.76585 32808 ft 419 kts 20°
2026-05-07 15:24 54.87761 9.78241 33205 ft 420 kts 20°
2026-05-07 15:24 54.90514 9.79906 33617 ft 420 kts 19°
2026-05-07 15:24 54.93280 9.81570 34036 ft 419 kts 19°
2026-05-07 15:24 54.96039 9.83225 34405 ft 419 kts 19°
2026-05-07 15:25 54.98794 9.84878 34762 ft 419 kts 19°
2026-05-07 15:25 55.01547 9.86538 35059 ft 420 kts 19°
2026-05-07 15:25 55.06219 9.89369 35139 ft 428 kts 19°
2026-05-07 15:26 55.11837 9.92787 35134 ft 431 kts 19°
2026-05-07 15:26 55.17502 9.96244 35130 ft 431 kts 19°
2026-05-07 15:27 55.23154 9.99709 35124 ft 431 kts 19°
2026-05-07 15:27 55.28812 10.03180 35120 ft 431 kts 19°
2026-05-07 15:28 55.34471 10.06651 35119 ft 431 kts 19°
2026-05-07 15:28 55.40135 10.10134 35118 ft 431 kts 19°
2026-05-07 15:29 55.45794 10.13636 35114 ft 431 kts 19°
2026-05-07 15:29 55.51453 10.17150 35115 ft 431 kts 19°
2026-05-07 15:30 55.57124 10.20679 35115 ft 432 kts 19°
2026-05-07 15:30 55.62746 10.24196 35117 ft 432 kts 19°
2026-05-07 15:31 55.68416 10.27748 35121 ft 432 kts 19°
2026-05-07 15:31 55.74083 10.31299 35120 ft 432 kts 19°
2026-05-07 15:32 55.79744 10.34871 35118 ft 432 kts 19°
2026-05-07 15:32 55.85409 10.38452 35120 ft 432 kts 19°
2026-05-07 15:33 55.91069 10.42035 35125 ft 432 kts 19°
2026-05-07 15:33 55.96736 10.45644 35120 ft 432 kts 19°
2026-05-07 15:34 56.02399 10.49250 35120 ft 432 kts 19°
2026-05-07 15:34 56.08070 10.52872 35117 ft 432 kts 19°
2026-05-07 15:35 56.13733 10.56512 35128 ft 432 kts 19°
2026-05-07 15:35 56.19398 10.60165 35128 ft 433 kts 18°
2026-05-07 15:36 56.25061 10.63818 35141 ft 433 kts 18°
2026-05-07 15:36 56.30728 10.67486 35141 ft 433 kts 19°
2026-05-07 15:37 56.36357 10.71148 35140 ft 433 kts 19°
2026-05-07 15:37 56.42059 10.74873 35133 ft 433 kts 18°
2026-05-07 15:38 56.47681 10.78553 35122 ft 433 kts 18°
2026-05-07 15:38 56.53350 10.82273 35128 ft 433 kts 18°
2026-05-07 15:39 56.59022 10.86012 34852 ft 433 kts 18°
2026-05-07 15:39 56.61829 10.87864 34337 ft 429 kts 18°
2026-05-07 15:39 56.64629 10.89711 33725 ft 427 kts 18°
2026-05-07 15:40 56.67406 10.91548 33163 ft 423 kts 18°
2026-05-07 15:40 56.70165 10.93381 32604 ft 419 kts 18°
2026-05-07 15:40 56.72890 10.95193 32189 ft 413 kts 18°
2026-05-07 15:40 56.75550 10.96965 31995 ft 402 kts 18°
2026-05-07 15:41 56.78149 10.98695 31593 ft 395 kts 18°
2026-05-07 15:41 56.80728 11.00411 31031 ft 392 kts 18°
2026-05-07 15:41 56.83268 11.02105 30486 ft 386 kts 18°
2026-05-07 15:41 56.85767 11.03779 29907 ft 380 kts 18°
2026-05-07 15:42 56.88236 11.05437 29279 ft 375 kts 18°
2026-05-07 15:42 56.90675 11.07078 28679 ft 373 kts 17°
2026-05-07 15:42 56.93111 11.08717 28090 ft 374 kts 17°
2026-05-07 15:42 56.95560 11.10367 27539 ft 375 kts 17°
2026-05-07 15:43 56.98008 11.12013 27041 ft 375 kts 17°
2026-05-07 15:43 57.00453 11.13652 26548 ft 374 kts 17°
2026-05-07 15:43 57.02888 11.15288 26060 ft 370 kts 17°
2026-05-07 15:43 57.05292 11.16913 25584 ft 365 kts 17°
2026-05-07 15:44 57.07651 11.18516 25120 ft 359 kts 18°
2026-05-07 15:44 57.09971 11.20098 24657 ft 353 kts 18°
2026-05-07 15:44 57.12256 11.21657 24211 ft 349 kts 17°
2026-05-07 15:44 57.14532 11.23209 23782 ft 348 kts 17°
2026-05-07 15:45 57.16798 11.24755 23302 ft 347 kts 17°
2026-05-07 15:45 57.19016 11.26503 22800 ft 348 kts 25°
2026-05-07 15:45 57.21034 11.28882 22318 ft 350 kts 35°
2026-05-07 15:45 57.22860 11.31948 21834 ft 352 kts 45°
2026-05-07 15:46 57.26157 11.38523 20901 ft 350 kts 45°
2026-05-07 15:46 57.27809 11.41816 20467 ft 349 kts 45°
2026-05-07 15:46 57.29457 11.45106 20041 ft 348 kts 45°
2026-05-07 15:47 57.31098 11.48388 19617 ft 347 kts 45°
2026-05-07 15:47 57.32734 11.51662 19201 ft 346 kts 45°
2026-05-07 15:47 57.34367 11.54924 18792 ft 345 kts 45°
2026-05-07 15:47 57.35992 11.58170 18383 ft 344 kts 45°
2026-05-07 15:48 57.37616 11.61423 17919 ft 343 kts 45°
2026-05-07 15:48 57.39231 11.64670 17461 ft 341 kts 45°
2026-05-07 15:48 57.40820 11.67867 16998 ft 333 kts 45°
2026-05-07 15:48 57.42370 11.70991 16546 ft 325 kts 45°
2026-05-07 15:49 57.43885 11.74050 16110 ft 320 kts 45°
2026-05-07 15:49 57.45382 11.77073 15671 ft 316 kts 45°
2026-05-07 15:49 57.46865 11.80070 15231 ft 312 kts 45°
2026-05-07 15:49 57.48332 11.83045 14813 ft 314 kts 45°
2026-05-07 15:50 57.49804 11.86039 14395 ft 312 kts 45°
2026-05-07 15:50 57.51252 11.88990 13982 ft 306 kts 45°
2026-05-07 15:50 57.52672 11.91889 13525 ft 301 kts 45°
2026-05-07 15:50 57.54076 11.94747 13064 ft 297 kts 45°
2026-05-07 15:51 57.55568 11.97366 12611 ft 293 kts 35°
2026-05-07 15:51 57.57267 11.99402 12164 ft 288 kts 25°
2026-05-07 15:51 57.59059 12.01121 11728 ft 291 kts 25°
2026-05-07 15:51 57.60824 12.02835 11281 ft 287 kts 25°
2026-05-07 15:52 57.62580 12.04557 10857 ft 283 kts 26°
2026-05-07 15:52 57.64324 12.06277 10433 ft 278 kts 26°
2026-05-07 15:52 57.65999 12.07929 10063 ft 277 kts 26°
2026-05-07 15:52 57.67744 12.09640 9722 ft 287 kts 26°
2026-05-07 15:53 57.69521 12.11377 9314 ft 287 kts 26°
2026-05-07 15:53 57.71288 12.13113 8906 ft 286 kts 26°
2026-05-07 15:53 57.73045 12.14842 8510 ft 285 kts 26°
2026-05-07 15:53 57.74792 12.16562 8123 ft 283 kts 26°
2026-05-07 15:54 57.76527 12.18273 7717 ft 281 kts 26°
2026-05-07 15:54 57.78260 12.19983 7298 ft 280 kts 26°
2026-05-07 15:54 57.79982 12.21684 6898 ft 279 kts 27°
2026-05-07 15:54 57.81695 12.23376 6522 ft 277 kts 27°
2026-05-07 15:55 57.83384 12.25048 6111 ft 270 kts 27°
2026-05-07 15:55 57.84987 12.26738 5721 ft 259 kts 37°
2026-05-07 15:55 57.86189 12.29134 5337 ft 249 kts 59°
2026-05-07 15:55 57.86823 12.32112 4954 ft 245 kts 80°
2026-05-07 15:56 57.86955 12.35265 4574 ft 239 kts 88°
2026-05-07 15:56 57.86695 12.38276 4171 ft 233 kts 116°
2026-05-07 15:56 57.85669 12.40517 3825 ft 226 kts 148°
2026-05-07 15:56 57.84215 12.41411 3561 ft 218 kts 177°
2026-05-07 15:57 57.82699 12.41567 3336 ft 217 kts 178°
2026-05-07 15:57 57.81216 12.41421 3138 ft 210 kts 195°
2026-05-07 15:57 57.79868 12.40408 2899 ft 209 kts 208°
2026-05-07 15:57 57.78563 12.39208 2712 ft 207 kts 208°
2026-05-07 15:58 57.77307 12.38058 2601 ft 197 kts 209°
2026-05-07 15:58 57.76092 12.36944 2403 ft 191 kts 210°
2026-05-07 15:58 57.74908 12.35860 2165 ft 187 kts 209°
2026-05-07 15:58 57.73762 12.34811 1914 ft 178 kts 209°
2026-05-07 15:59 57.72674 12.33817 1692 ft 169 kts 211°
2026-05-07 15:59 57.71672 12.32905 1447 ft 152 kts 212°
2026-05-07 15:59 57.70768 12.32080 1247 ft 141 kts 212°
2026-05-07 15:59 57.69904 12.31290 1056 ft 137 kts 212°
2026-05-07 16:00 57.69062 12.30521 878 ft 133 kts 211°
2026-05-07 16:00 57.68233 12.29763 694 ft 133 kts 213°
2026-05-07 16:00 57.67416 12.29017 540 ft 129 kts 212°
2026-05-07 16:00 57.66732 12.28381 524 ft 82 kts 205°
2026-05-07 16:01 57.66301 12.27987 518 ft 61 kts 207°
2026-05-07 16:01 57.65986 12.27710 516 ft 37 kts 198°
2026-05-07 16:01 57.65784 12.27673 515 ft 20 kts 175°
2026-05-07 16:01 57.65717 12.27784 514 ft 12 kts 72°
2026-05-07 16:02 57.65764 12.27857 515 ft 6 kts 30°
2026-05-07 16:02 57.65805 12.27896 515 ft 10 kts 25°
2026-05-07 16:02 57.65892 12.27972 516 ft 17 kts 26°
2026-05-07 16:02 57.66004 12.28073 517 ft 18 kts 26°
2026-05-07 16:03 57.66117 12.28174 518 ft 18 kts 26°
2026-05-07 16:03 57.66225 12.28274 520 ft 18 kts 26°
2026-05-07 16:03 57.66339 12.28375 521 ft 18 kts 25°
2026-05-07 16:03 57.66448 12.28476 522 ft 18 kts 26°
2026-05-07 16:04 57.66558 12.28577 523 ft 18 kts 26°
2026-05-07 16:04 57.66668 12.28677 524 ft 17 kts 25°
2026-05-07 16:04 57.66778 12.28771 525 ft 17 kts 25°
2026-05-07 16:04 57.66885 12.28871 527 ft 17 kts 27°
2026-05-07 16:05 57.66990 12.28970 528 ft 17 kts 26°
2026-05-07 16:05 57.67040 12.29086 528 ft 10 kts 111°
2026-05-07 16:05 57.67005 12.29213 528 ft 12 kts 116°
2026-05-07 16:05 57.66966 12.29348 528 ft 11 kts 121°
2026-05-07 16:06 57.66937 12.29452 528 ft 5 kts 117°
2026-05-07 16:06 57.66935 12.29461 528 ft 0 kts 118°